SL-23 R/B, 34112

Orbit data source: Space-Track

SL-23 R/B, 34112 is space debris in HEO originally from a launch on Thu, 26 Feb 2009 UTC launched from the Tyuratam Missile And Space Complex (TTMTR). Debris objects in space refer to the collection of defunct objects orbiting the Earth. Examples of debris include non-operational satellites, rocket bodies, and fragments generated from explosions, collisions, or faulty payload assembly.

Loading next visibility...
Identifier
34112, 2009-009B
Orbit
HEO
Country
Flag of CISCIS
Related business
Flag of RUSpace International Services (RU)
Manufacturer
RKKE
Mission
Spacecraft
Bus & Motor
BLOK DM2, 11D58M
Mass
2,540 kg wet, 2,540 kg dry
Launch date (UTC)
2009-02-26 (17 years ago)
Launch vehicle
Unknown
Launch site
Tyuratam Missile And Space Complex (TTMTR)
Object type
Payload
Rocket body
Debris
Shape & HBR
Cyl + 1 Nozzle, 3.0 m
Radar Cross Section
22.521 m², Large (>1 m²)

Expand to show TLE details & history
Last TLE update: 11 hours ago

TLE from 11 hours ago
0 SL-23 R/B
1 34112U 09009B   26169.90305875 -.00000153  00000-0  00000+0 0  9999
2 34112  34.8695 268.0406 6903292 170.8633 235.8017  2.20446535139407
Epoch: 2026-06-18T21:40Z
TLE epoch observation values (Epoch: 2026-06-18T21:40:24.275Z)
Latitude
3.22159°
Longitude
40.41473°
Altitude
32,892.183 km
Speed
2.078 km/s
True Right ascension
18h 10m 37s
True Declination
3° 13' 05"
Sunlit
Object was in daylight at epoch
Visualization orbit readout
Latitude
Unknown
Longitude
Unknown
Altitude
Unknown
Speed
Unknown
Apparent Right ascension
Unknown
Apparent Declination
Unknown
Sunlit
N/A
Visualization observer readout
Local Sidereal Time
19:11:23
Azimuth
Unknown
Elevation
Unknown
Doppler factor
Unknown
Orbital elements
Apogee altitude
35,779.793 km
Perigee altitude
1,345.258 km
Semi-major axis
24,940.662 km
Eccentricity
0.69033
Inclination
34.8695°
RAAN
268.0406°
Arg. of periapsis
170.8633°
True anomaly
194.8182°
Mean anomaly
235.8017°
Eccentric anomaly
213.79909°
Mean motion
0.55104 °/min
Orbital period
653.31 mins
BSTAR
0
Loading maneuver chart data...
Computing Atmospheric mass density...
Loading historical data...
Loading historical data...
Loading historical data...
Loading historical data...
Loading historical data...
Loading historical data...
Loading historical data...
Other satellites on launch #9 in the year 2009 (2009-02-26 UTC)

Documentation

Showing up to 5 results
|